Location: Street
(51.1247°N, 2.7429°W)
Time: 06:05:39
(UTC+01:00)

NANOSAT C BR1 - Pass Details

Date: 06 April 2023
Orbit: 573 x 587 km, 98.0° (Epoch: 29 May)

Event Time Altitude Azimuth Distance (km) Brightness Sun altitude
Rises 04:33:36 0° 10° (N) 2,809 ? -18.4°
Reaches altitude 10° 04:35:48 10° 5° (N) 1,902 ? -18.1°
Maximum altitude 04:39:46 48° 291° (WNW) 756 ? -17.6°
Enters shadow 04:40:54 37° 245° (WSW) 902 ? -17.4°
